This demonstration page uses our WeatherBlox Daily Observations layout. Learn more.

Left ArrowRight Arrow

Hourly Observations for October 24, 2021

Temp ( °F °C ) Dew Point ( °F °C ) Humidity (%) Winds ( mph kmh ) Pressure ( in mb ) Visibility ( mi km ) Precip ( " mm )
12:43 am 00:43 Cloudy with Mist and Fog 50 10 48 9 94 94 ENE 10 17 29.70 1006 4 6 0.00 0.00
12:56 am 00:56 Cloudy with Light Rain 50 10 49 9.4 96 96 ENE 8 13 29.68 1005 3 5 0.00 0.00
1:03 am 01:03 Cloudy with Light Rain 50 10 48 9 94 94 ENE 9 15 29.70 1006 3 4 0.00 0.00
1:15 am 01:15 Cloudy with Light Rain 50 10 48 9 94 94 NE 9 15 29.70 1006 2 3 0.00 0.00
1:56 am 01:56 Cloudy with Light Rain 49 9.4 49 9.4 100 100 NNE 10 17 29.69 1005 2 3 0.00 0.00
2:10 am 02:10 Cloudy with Light Rain 48 9 48 9 100 100 NNE 12 19 29.70 1006 2 3 0.00 0.00
2:56 am 02:56 Cloudy with Light Rain 49 9.4 48 8.9 97 97 NNE 13 20 29.68 1005 2 3 0.01 0.25
3:08 am 03:08 Cloudy with Light Rain 46 8 46 8 100 100 NNE 13 20 29.71 1006 2 3 0.00 0.00
3:27 am 03:27 Cloudy with Light Rain 46 8 46 8 100 100 NE 14 22 29.70 1006 3 5 0.00 0.00
3:56 am 03:56 Cloudy with Light Rain 46 7.8 46 7.8 100 100 NNE 12 19 29.69 1005 4 6 0.00 0.00
4:56 am 04:56 Cloudy with Light Rain 46 7.8 45 7.2 96 96 NNE 17 28 29.66 1005 7 11 0.00 0.00
5:56 am 05:56 Cloudy 45 7.2 44 6.7 97 97 NNE 16 26 29.67 1005 9 14 0.00 0.00
6:56 am 06:56 Cloudy 45 7.2 44 6.7 97 97 NNE 12 19 29.70 1006 10 16 0.00 0.00
7:56 am 07:56 Cloudy with Light Rain 44 6.7 43 6.1 96 96 NNE 16 26 29.67 1005 10 16 0.00 0.00
8:56 am 08:56 Cloudy 44 6.7 43 6.1 96 96 N 16 26 29.72 1007 10 16 0.00 0.00
9:56 am 09:56 Cloudy with Light Rain 45 7.2 43 6.1 93 93 N 12 19 29.72 1006 10 16 0.00 0.00
10:56 am 10:56 Cloudy 46 7.8 43 6.1 89 89 N 15 24 29.72 1006 10 16 0.00 0.00
11:56 am 11:56 Cloudy 47 8.3 44 6.7 90 90 N 9 15 29.76 1008 10 16 0.00 0.00
12:07 pm 12:07 Cloudy 46 8 45 7 93 93 N 10 17 29.78 1009 10 16 0.00 0.00
12:56 pm 12:56 Cloudy 49 9.4 45 7.2 86 86 N 14 22 29.76 1008 10 16 0.00 0.00
1:56 pm 13:56 Cloudy 53 11.7 46 7.8 77 77 NNW 18 30 29.75 1008 10 16 0.00 0.00
2:10 pm 14:10 Mostly Cloudy 54 12 46 8 77 77 N 20 31 29.74 1007 10 16 0.00 0.00
2:56 pm 14:56 Partly Cloudy 57 13.9 47 8.3 69 69 N 18 30 29.74 1007 10 16 0.00 0.00
3:56 pm 15:56 Sunny 60 15.6 47 8.3 62 62 N 15 24 29.76 1008 10 16 0.00 0.00
4:56 pm 16:56 Sunny 59 15 47 8.3 64 64 NNE 12 19 29.80 1009 10 16 0.00 0.00
5:56 pm 17:56 Mostly Cloudy 54 12.2 46 7.8 75 75 NE 9 15 29.83 1010 10 16 0.00 0.00
6:56 pm 18:56 Clear 49 9.4 44 6.7 83 83 NNE 8 13 29.87 1012 10 16 0.00 0.00
7:56 pm 19:56 Clear 46 7.8 42 5.6 86 86 N 9 15 29.92 1013 10 16 0.00 0.00
8:56 pm 20:56 Clear 44 6.7 41 5 89 89 NW 6 9 29.97 1015 10 16 0.00 0.00
9:56 pm 21:56 Clear 41 5 39 3.9 93 93 N 8 13 29.98 1015 10 16 0.00 0.00
10:56 pm 22:56 Clear 40 4.4 38 3.3 93 93 NW 6 9 30.00 1016 10 16 0.00 0.00
11:48 pm 23:48 Mostly Cloudy 37 3 37 3 100 100 NNE 7 11 30.04 1017 10 16 0.00 0.00
11:56 pm 23:56 Mostly Cloudy 39 3.9 38 3.3 96 96 NNE 8 13 30.00 1016 10 16 0.00 0.00

Powered by AerisWeather